TimeEDT,TemperatureF,Dew PointF,Humidity,Sea Level PressureIn,VisibilityMPH,Wind Direction,Wind SpeedMPH,Gust SpeedMPH,PrecipitationIn,Events,Conditions,WindDirDegrees,DateUTC
12:53 AM,64.9,57.9,78,30.08,10.0,Calm,Calm,-,N/A,,Clear,0,2013-05-18 04:53:00
1:53 AM,63.0,57.9,84,30.07,10.0,Calm,Calm,-,N/A,,Clear,0,2013-05-18 05:53:00
2:53 AM,61.0,57.0,87,30.06,10.0,Calm,Calm,-,N/A,,Clear,0,2013-05-18 06:53:00
3:53 AM,61.0,57.0,87,30.05,10.0,Calm,Calm,-,N/A,,Clear,0,2013-05-18 07:53:00
4:53 AM,62.1,57.9,86,30.09,10.0,East,3.5,-,N/A,,Clear,100,2013-05-18 08:53:00
5:53 AM,60.1,57.0,90,30.09,9.0,Calm,Calm,-,N/A,Fog,Patches of Fog,0,2013-05-18 09:53:00
6:53 AM,61.0,55.9,83,30.09,10.0,Calm,Calm,-,N/A,Fog,Patches of Fog,0,2013-05-18 10:53:00
7:53 AM,66.0,61.0,84,30.12,10.0,Calm,Calm,-,N/A,,Partly Cloudy,0,2013-05-18 11:53:00
8:53 AM,72.0,63.0,73,30.12,10.0,SE,3.5,-,N/A,,Partly Cloudy,140,2013-05-18 12:53:00
9:53 AM,78.1,63.0,60,30.13,10.0,Variable,3.5,-,N/A,,Partly Cloudy,0,2013-05-18 13:53:00
10:53 AM,80.1,61.0,52,30.12,10.0,Calm,Calm,-,N/A,,Partly Cloudy,0,2013-05-18 14:53:00
11:53 AM,84.9,59.0,41,30.14,10.0,Variable,6.9,-,N/A,,Partly Cloudy,0,2013-05-18 15:53:00
12:53 PM,82.9,59.0,44,30.11,10.0,WSW,6.9,-,N/A,,Partly Cloudy,240,2013-05-18 16:53:00
1:53 PM,84.0,59.0,43,30.10,10.0,NNW,3.5,-,0.00,,Scattered Clouds,330,2013-05-18 17:53:00
2:53 PM,84.2,60.8,45,30.10,10.0,Variable,3.5,-,N/A,,Mostly Cloudy,0,2013-05-18 18:53:00
3:53 PM,82.0,63.0,52,30.03,10.0,SE,11.5,-,0.00,Rain,Light Rain,130,2013-05-18 19:53:00
4:53 PM,82.0,62.1,51,30.06,10.0,NW,4.6,-,0.01,Rain,Light Rain,320,2013-05-18 20:53:00
5:53 PM,81.0,66.9,62,30.05,10.0,Calm,Calm,-,0.01,,Mostly Cloudy,0,2013-05-18 21:53:00
6:53 PM,82.0,64.0,54,30.04,10.0,Calm,Calm,-,N/A,,Scattered Clouds,0,2013-05-18 22:53:00
7:53 PM,81.0,62.1,52,30.04,10.0,Calm,Calm,-,N/A,,Partly Cloudy,0,2013-05-18 23:53:00
8:53 PM,75.9,66.9,74,30.04,10.0,Calm,Calm,-,N/A,,Clear,0,2013-05-19 00:53:00
9:53 PM,73.0,66.9,81,30.06,10.0,Calm,Calm,-,N/A,,Clear,0,2013-05-19 01:53:00
10:53 PM,70.0,66.0,87,30.07,10.0,Calm,Calm,-,N/A,,Partly Cloudy,0,2013-05-19 02:53:00
11:53 PM,71.1,66.0,84,30.08,10.0,Calm,Calm,-,N/A,,Overcast,0,2013-05-19 03:53:00